Year,Month,Day,Hour,Minute,Value (Times are PST for temperature in C)
2015,05,29,00,00,15.40
2015,05,29,00,01,15.40
2015,05,29,00,02,15.40
2015,05,29,00,03,15.40
2015,05,29,00,04,15.40
2015,05,29,00,05,15.40
2015,05,29,00,06,15.30
2015,05,29,00,07,15.30
2015,05,29,00,08,15.30
2015,05,29,00,09,15.30
2015,05,29,00,10,15.20
2015,05,29,00,11,15.20
2015,05,29,00,12,15.20
2015,05,29,00,13,15.20
2015,05,29,00,14,15.10
2015,05,29,00,15,15.10
2015,05,29,00,16,15.10
2015,05,29,00,17,15.00
2015,05,29,00,18,15.00
2015,05,29,00,19,15.00
2015,05,29,00,20,15.00
2015,05,29,00,21,14.90
2015,05,29,00,22,14.90
2015,05,29,00,23,14.90
2015,05,29,00,24,14.90
2015,05,29,00,25,14.90
2015,05,29,00,26,14.90
2015,05,29,00,27,14.90
2015,05,29,00,28,14.90
2015,05,29,00,29,14.80
2015,05,29,00,30,14.80
2015,05,29,00,31,14.80
2015,05,29,00,32,14.80
2015,05,29,00,33,14.90
2015,05,29,00,34,14.90
2015,05,29,00,35,14.90
2015,05,29,00,36,15.00
2015,05,29,00,37,15.00
2015,05,29,00,38,15.00
2015,05,29,00,39,15.00
2015,05,29,00,40,15.10
2015,05,29,00,41,15.10
2015,05,29,00,42,15.10
2015,05,29,00,43,15.10
2015,05,29,00,44,15.10
2015,05,29,00,45,15.10
2015,05,29,00,46,15.10
2015,05,29,00,47,15.10
2015,05,29,00,48,15.10
2015,05,29,00,49,15.10
2015,05,29,00,50,15.10
2015,05,29,00,51,15.10
2015,05,29,00,52,15.10
2015,05,29,00,53,15.10
2015,05,29,00,54,15.10
2015,05,29,00,55,15.10
2015,05,29,00,56,15.10
2015,05,29,00,57,15.10
2015,05,29,00,58,15.10
2015,05,29,00,59,15.10
2015,05,29,01,00,15.10
2015,05,29,01,01,15.10
2015,05,29,01,02,15.10
2015,05,29,01,03,15.10
2015,05,29,01,04,15.10
2015,05,29,01,05,15.10
2015,05,29,01,06,15.10
2015,05,29,01,07,15.20
2015,05,29,01,08,15.10
2015,05,29,01,09,15.10
2015,05,29,01,10,15.10
2015,05,29,01,11,15.10
2015,05,29,01,12,15.10
2015,05,29,01,13,15.10
2015,05,29,01,14,15.10
2015,05,29,01,15,15.10
2015,05,29,01,16,15.10
2015,05,29,01,17,15.10
2015,05,29,01,18,15.10
2015,05,29,01,19,15.10
2015,05,29,01,20,15.10
2015,05,29,01,21,15.10
2015,05,29,01,22,15.10
2015,05,29,01,23,15.10
2015,05,29,01,24,15.10
2015,05,29,01,25,15.10
2015,05,29,01,26,15.10
2015,05,29,01,27,15.10
2015,05,29,01,28,15.10
2015,05,29,01,29,15.10
2015,05,29,01,30,15.10
2015,05,29,01,31,15.10
2015,05,29,01,32,15.10
2015,05,29,01,33,15.10
2015,05,29,01,34,15.10
2015,05,29,01,35,15.10
2015,05,29,01,36,15.10
2015,05,29,01,37,15.10
2015,05,29,01,38,15.10
2015,05,29,01,39,15.10
2015,05,29,01,40,15.10
2015,05,29,01,41,15.10
2015,05,29,01,42,15.10
2015,05,29,01,43,15.10
2015,05,29,01,44,15.10
2015,05,29,01,45,15.00
2015,05,29,01,46,15.00
2015,05,29,01,47,15.00
2015,05,29,01,48,14.90
2015,05,29,01,49,14.90
2015,05,29,01,50,14.90
2015,05,29,01,51,14.90
2015,05,29,01,52,14.90
2015,05,29,01,53,14.90
2015,05,29,01,54,14.90
2015,05,29,01,55,14.80
2015,05,29,01,56,14.80
2015,05,29,01,57,14.80
2015,05,29,01,58,14.80
2015,05,29,01,59,14.80
2015,05,29,02,00,14.80
2015,05,29,02,01,14.80
2015,05,29,02,02,14.80
2015,05,29,02,03,14.80
2015,05,29,02,04,14.80
2015,05,29,02,05,14.80
2015,05,29,06,19,13.40
2015,05,29,06,20,13.40
2015,05,29,06,21,13.40
2015,05,29,06,22,13.40
2015,05,29,06,23,13.40
2015,05,29,06,24,13.40
2015,05,29,06,25,13.40
2015,05,29,06,26,13.40
2015,05,29,06,27,13.40
2015,05,29,06,28,13.40
2015,05,29,06,29,13.40
2015,05,29,06,30,13.40
2015,05,29,06,31,13.40
2015,05,29,06,32,13.40
2015,05,29,06,33,13.40
2015,05,29,06,34,13.40
2015,05,29,06,35,13.40
2015,05,29,06,36,13.50
2015,05,29,06,37,13.50
2015,05,29,06,38,13.50
2015,05,29,06,39,13.50
2015,05,29,06,40,13.50
2015,05,29,06,41,13.50
2015,05,29,06,42,13.50
2015,05,29,06,43,13.50
2015,05,29,06,44,13.50
2015,05,29,06,45,13.50
2015,05,29,06,46,13.50
2015,05,29,06,47,13.50
2015,05,29,06,48,13.50
2015,05,29,06,49,13.60
2015,05,29,06,50,13.60
2015,05,29,06,51,13.60
2015,05,29,06,52,13.60
2015,05,29,06,53,13.60
2015,05,29,06,54,13.60
2015,05,29,06,55,13.70
2015,05,29,06,56,13.70
2015,05,29,06,57,13.70
2015,05,29,06,58,13.70
2015,05,29,06,59,13.80
2015,05,29,07,00,13.80
2015,05,29,07,01,13.80
2015,05,29,07,02,13.90
2015,05,29,07,03,13.90
2015,05,29,07,04,13.90
2015,05,29,07,05,13.90
2015,05,29,07,06,13.90
2015,05,29,07,07,14.00
2015,05,29,07,08,14.10
2015,05,29,07,09,14.20
2015,05,29,07,10,14.20
2015,05,29,07,11,14.30
2015,05,29,07,12,14.40
2015,05,29,07,13,14.50
2015,05,29,07,14,14.60
2015,05,29,07,15,14.60
2015,05,29,07,16,14.70
2015,05,29,07,17,14.80
2015,05,29,07,18,14.90
2015,05,29,07,19,15.00
2015,05,29,07,20,15.10
2015,05,29,07,21,15.20
2015,05,29,07,22,15.30
2015,05,29,07,23,15.40
2015,05,29,07,24,15.50
2015,05,29,07,25,15.60
2015,05,29,07,26,15.60
2015,05,29,07,27,15.70
2015,05,29,07,28,15.80
2015,05,29,07,29,15.80
2015,05,29,07,30,15.90
2015,05,29,07,31,16.00
2015,05,29,07,32,16.20
2015,05,29,07,33,16.30
2015,05,29,07,34,16.40
2015,05,29,07,35,16.50
2015,05,29,07,36,16.50
2015,05,29,07,37,16.60
2015,05,29,07,38,16.70
2015,05,29,07,39,16.70
2015,05,29,07,40,16.80
2015,05,29,07,41,16.90
2015,05,29,07,42,16.90
2015,05,29,07,43,17.00
2015,05,29,07,44,17.00
2015,05,29,07,45,17.10
2015,05,29,07,46,17.20
2015,05,29,07,47,17.20
2015,05,29,07,48,17.30
2015,05,29,07,49,17.40
2015,05,29,07,50,17.40
2015,05,29,07,51,17.40
2015,05,29,07,52,17.50
2015,05,29,07,53,17.50
2015,05,29,07,54,17.60
2015,05,29,07,55,17.70
2015,05,29,07,56,17.70
2015,05,29,07,57,17.80
2015,05,29,07,58,17.90
2015,05,29,07,59,18.00
2015,05,29,08,00,18.10
2015,05,29,08,01,18.20
2015,05,29,08,02,18.30
2015,05,29,08,03,18.30
2015,05,29,08,04,18.40
2015,05,29,08,05,18.50
2015,05,29,08,06,18.50
2015,05,29,08,07,18.60
2015,05,29,08,08,18.80
2015,05,29,08,09,18.90
2015,05,29,08,10,19.00
2015,05,29,08,11,19.10
2015,05,29,08,12,19.20
2015,05,29,08,13,19.30
2015,05,29,08,14,19.40
2015,05,29,08,15,19.40
2015,05,29,08,16,19.50
2015,05,29,08,17,19.50
2015,05,29,08,18,19.60
2015,05,29,08,19,19.60
2015,05,29,08,20,19.60
2015,05,29,08,21,19.60
2015,05,29,08,22,19.60
2015,05,29,08,23,19.60
2015,05,29,08,24,19.60
2015,05,29,08,25,19.60
2015,05,29,08,26,19.50
2015,05,29,08,27,19.40
2015,05,29,08,28,19.30
2015,05,29,08,29,19.30
2015,05,29,08,30,19.20
2015,05,29,08,31,19.30
2015,05,29,08,32,19.30
2015,05,29,08,33,19.30
2015,05,29,08,34,19.30
2015,05,29,08,35,19.30
2015,05,29,08,36,19.40
2015,05,29,08,37,19.40
2015,05,29,08,38,19.40
2015,05,29,08,39,19.30
2015,05,29,08,40,19.30
2015,05,29,08,41,19.40
2015,05,29,08,42,19.40
2015,05,29,08,43,19.40
2015,05,29,08,44,19.50
2015,05,29,08,45,19.50
2015,05,29,08,46,19.40
2015,05,29,08,47,19.40
2015,05,29,08,48,19.30
2015,05,29,08,49,19.30
2015,05,29,08,50,19.30
2015,05,29,08,51,19.20
2015,05,29,08,52,19.10
2015,05,29,08,53,18.90
2015,05,29,08,54,18.80
2015,05,29,08,55,18.70
2015,05,29,08,56,18.70
2015,05,29,08,57,18.70
2015,05,29,08,58,18.60
2015,05,29,08,59,18.70
2015,05,29,09,00,18.70
2015,05,29,09,01,18.80
2015,05,29,09,02,18.80
2015,05,29,09,03,18.90
2015,05,29,09,04,18.90
2015,05,29,09,05,18.90
2015,05,29,09,06,18.90
2015,05,29,09,07,19.00
2015,05,29,09,08,19.00
2015,05,29,09,09,19.10
2015,05,29,09,10,19.20
2015,05,29,09,11,19.30
2015,05,29,09,12,19.30
2015,05,29,09,13,19.30
2015,05,29,09,14,19.30
2015,05,29,09,15,19.30
2015,05,29,09,16,19.40
2015,05,29,09,17,19.30
2015,05,29,09,18,19.30
2015,05,29,09,19,19.30
2015,05,29,09,20,19.40
2015,05,29,09,21,19.40
2015,05,29,09,22,19.40
2015,05,29,09,23,19.40
2015,05,29,09,24,19.50
2015,05,29,09,25,19.60
2015,05,29,09,26,19.60
2015,05,29,09,27,19.60
2015,05,29,09,28,19.60
2015,05,29,09,29,19.50
2015,05,29,09,30,19.50
2015,05,29,09,31,19.50
2015,05,29,09,32,19.50
2015,05,29,09,33,19.50
2015,05,29,09,34,19.60
2015,05,29,09,35,19.80
2015,05,29,09,36,19.80
2015,05,29,09,37,19.90
2015,05,29,09,38,19.90
2015,05,29,09,39,19.90
2015,05,29,09,40,19.80
2015,05,29,09,41,19.70
2015,05,29,09,42,19.70
2015,05,29,09,43,19.80
2015,05,29,09,44,19.90
2015,05,29,09,45,20.10
2015,05,29,09,46,20.20
2015,05,29,09,47,20.20
2015,05,29,09,48,20.20
2015,05,29,09,49,20.20
2015,05,29,09,50,20.10
2015,05,29,09,51,20.10
2015,05,29,09,52,20.00
2015,05,29,09,53,20.00
2015,05,29,09,54,19.90
2015,05,29,09,55,19.90
2015,05,29,09,56,19.90
2015,05,29,09,57,19.90
2015,05,29,09,58,19.90
2015,05,29,09,59,19.90
2015,05,29,10,00,19.90
2015,05,29,10,01,20.00
2015,05,29,10,02,20.10
2015,05,29,10,03,20.20
2015,05,29,10,04,20.30
2015,05,29,10,05,20.40
2015,05,29,10,06,20.50
2015,05,29,10,07,20.60
2015,05,29,10,08,20.60
2015,05,29,10,09,20.60
2015,05,29,10,10,20.60
2015,05,29,10,11,20.70
2015,05,29,10,12,20.70
2015,05,29,10,13,20.70
2015,05,29,10,14,20.70
2015,05,29,10,15,20.70
2015,05,29,10,16,20.60
2015,05,29,10,17,20.50
2015,05,29,10,18,20.50
2015,05,29,10,19,20.50
2015,05,29,10,20,20.50
2015,05,29,10,21,20.50
2015,05,29,10,22,20.50
2015,05,29,10,23,20.50
2015,05,29,10,24,20.50
2015,05,29,10,25,20.50
2015,05,29,10,26,20.60
2015,05,29,10,27,20.70
2015,05,29,10,28,20.80
2015,05,29,10,29,20.80
2015,05,29,10,30,20.80
2015,05,29,10,31,20.70
2015,05,29,10,32,20.50
2015,05,29,10,33,20.40
2015,05,29,10,34,20.30
2015,05,29,10,35,20.30
2015,05,29,10,36,20.30
2015,05,29,10,37,20.40
2015,05,29,10,38,20.50
2015,05,29,10,39,20.60
2015,05,29,10,40,20.60
2015,05,29,10,41,20.70
2015,05,29,10,42,20.70
2015,05,29,10,43,20.70
2015,05,29,10,44,20.60
2015,05,29,10,45,20.60
2015,05,29,10,46,20.70
2015,05,29,10,47,20.80
2015,05,29,10,48,20.80
2015,05,29,10,49,20.80
2015,05,29,10,50,20.70
2015,05,29,10,51,20.60
2015,05,29,10,52,20.60
2015,05,29,10,53,20.60
2015,05,29,10,54,20.60
2015,05,29,10,55,20.50
2015,05,29,10,56,20.40
2015,05,29,10,57,20.40
2015,05,29,10,58,20.40
2015,05,29,10,59,20.50
2015,05,29,11,00,20.60
2015,05,29,11,01,20.60
2015,05,29,11,02,20.70
2015,05,29,11,03,20.70
2015,05,29,11,04,20.60
2015,05,29,11,05,20.60
2015,05,29,11,06,20.50
2015,05,29,11,07,20.40
2015,05,29,11,08,20.30
2015,05,29,11,09,20.20
2015,05,29,11,10,20.10
2015,05,29,11,11,20.10
2015,05,29,11,12,20.00
2015,05,29,11,13,20.00
2015,05,29,11,14,19.90
2015,05,29,11,15,19.90
2015,05,29,11,16,20.00
2015,05,29,11,17,20.00
2015,05,29,11,18,19.90
2015,05,29,11,19,19.90
2015,05,29,11,20,19.70
2015,05,29,11,21,19.70
2015,05,29,11,22,19.70
2015,05,29,11,23,19.70
2015,05,29,11,24,19.90
2015,05,29,11,25,20.00
2015,05,29,11,26,20.10
2015,05,29,11,27,20.30
2015,05,29,11,28,20.40
2015,05,29,11,29,20.40
2015,05,29,11,30,20.40
2015,05,29,11,31,20.30
2015,05,29,11,32,20.20
2015,05,29,11,33,20.20
2015,05,29,11,34,20.10
2015,05,29,11,35,20.10
2015,05,29,11,36,20.20
2015,05,29,11,37,20.30
2015,05,29,11,38,20.30
2015,05,29,11,39,20.30
2015,05,29,11,40,20.20
2015,05,29,11,41,20.20
2015,05,29,11,42,20.20
2015,05,29,11,43,20.40
2015,05,29,11,44,20.40
2015,05,29,11,45,20.60
2015,05,29,11,46,20.70
2015,05,29,11,47,20.80
2015,05,29,11,48,21.00
2015,05,29,11,49,21.10
2015,05,29,11,50,21.20
2015,05,29,11,51,21.00
2015,05,29,11,52,20.70
2015,05,29,11,53,20.50
2015,05,29,11,54,20.30
2015,05,29,11,55,20.20
2015,05,29,11,56,20.30
2015,05,29,11,57,20.30
2015,05,29,11,58,20.40
2015,05,29,11,59,20.50
2015,05,29,12,00,20.70
2015,05,29,12,01,20.90
2015,05,29,12,02,21.10
2015,05,29,12,03,21.10
2015,05,29,12,04,21.10
2015,05,29,12,05,21.10
2015,05,29,12,06,21.10
2015,05,29,12,07,21.20
2015,05,29,12,08,21.20
2015,05,29,12,09,21.20
2015,05,29,12,10,21.30
2015,05,29,12,11,21.40
2015,05,29,12,12,21.60
2015,05,29,12,13,21.60
2015,05,29,12,14,21.70
2015,05,29,12,15,21.80
2015,05,29,12,16,21.80
2015,05,29,12,17,21.80
2015,05,29,12,18,21.80
2015,05,29,12,19,21.70
2015,05,29,12,20,21.70
2015,05,29,12,21,21.80
2015,05,29,12,22,21.90
2015,05,29,12,23,22.00
2015,05,29,12,24,22.10
2015,05,29,12,25,22.20
2015,05,29,12,26,22.20
2015,05,29,12,27,22.20
2015,05,29,12,28,22.20
2015,05,29,12,29,22.20
2015,05,29,12,30,22.20
2015,05,29,12,31,22.00
2015,05,29,12,32,22.00
2015,05,29,12,33,21.90
2015,05,29,12,34,22.00
2015,05,29,12,35,22.10
2015,05,29,12,36,22.10
2015,05,29,12,37,22.10
2015,05,29,12,38,22.00
2015,05,29,12,39,22.00
2015,05,29,12,40,22.10
2015,05,29,12,41,22.20
2015,05,29,12,42,22.30
2015,05,29,12,43,22.40
2015,05,29,12,44,22.40
2015,05,29,12,45,22.30
2015,05,29,12,46,22.20
2015,05,29,12,47,22.10
2015,05,29,12,48,22.00
2015,05,29,12,49,22.00
2015,05,29,12,50,21.90
2015,05,29,12,51,21.90
2015,05,29,12,52,21.90
2015,05,29,12,53,21.90
2015,05,29,12,54,21.90
2015,05,29,12,55,22.00
2015,05,29,12,56,21.90
2015,05,29,12,57,21.90
2015,05,29,12,58,21.90
2015,05,29,12,59,22.00
2015,05,29,13,00,22.00
2015,05,29,13,01,21.90
2015,05,29,13,02,21.80
2015,05,29,13,03,21.80
2015,05,29,13,04,21.90
2015,05,29,13,05,21.90
2015,05,29,13,06,22.00
2015,05,29,13,07,22.10
2015,05,29,13,08,22.30
2015,05,29,13,09,22.20
2015,05,29,13,10,22.20
2015,05,29,13,11,22.20
2015,05,29,13,12,22.20
2015,05,29,13,13,22.20
2015,05,29,13,14,22.20
2015,05,29,13,15,22.20
2015,05,29,13,16,22.30
2015,05,29,13,17,22.40
2015,05,29,13,18,22.60
2015,05,29,13,19,22.70
2015,05,29,13,20,22.70
2015,05,29,13,21,22.80
2015,05,29,13,22,22.90
2015,05,29,13,23,23.00
2015,05,29,13,24,23.20
2015,05,29,13,25,23.20
2015,05,29,13,26,23.20
2015,05,29,13,27,23.20
2015,05,29,13,28,23.20
2015,05,29,13,29,23.20
2015,05,29,13,30,23.20
2015,05,29,13,31,23.10
2015,05,29,13,32,23.20
2015,05,29,13,33,23.20
2015,05,29,13,34,23.20
2015,05,29,13,35,23.30
2015,05,29,13,36,23.30
2015,05,29,13,37,23.40
2015,05,29,13,38,23.40
2015,05,29,13,39,23.40
2015,05,29,13,40,23.40
2015,05,29,13,41,23.50
2015,05,29,13,42,23.60
2015,05,29,13,43,23.80
2015,05,29,13,44,23.80
2015,05,29,13,45,23.70
2015,05,29,13,46,23.60
2015,05,29,13,47,23.60
2015,05,29,13,48,23.60
2015,05,29,13,49,23.70
2015,05,29,13,50,23.70
2015,05,29,13,51,23.80
2015,05,29,13,52,23.80
2015,05,29,13,53,23.70
2015,05,29,13,54,23.70
2015,05,29,13,55,23.60
2015,05,29,13,56,23.60
2015,05,29,13,57,23.60
2015,05,29,13,58,23.70
2015,05,29,13,59,23.90
2015,05,29,14,00,23.90
2015,05,29,14,01,23.80
2015,05,29,14,02,23.80
2015,05,29,14,03,23.90
2015,05,29,14,04,23.90
2015,05,29,14,05,23.80
2015,05,29,14,06,23.90
2015,05,29,14,07,24.00
2015,05,29,14,08,24.10
2015,05,29,14,09,24.10
2015,05,29,14,10,24.10
2015,05,29,14,11,24.10
2015,05,29,14,12,24.10
2015,05,29,14,13,24.10
2015,05,29,14,14,24.20
2015,05,29,14,15,24.20
2015,05,29,14,16,24.30
2015,05,29,14,17,24.40
2015,05,29,14,18,24.50
2015,05,29,14,19,24.60
2015,05,29,14,20,24.60
2015,05,29,14,21,24.50
2015,05,29,14,22,24.50
2015,05,29,14,23,24.60
2015,05,29,14,24,24.60
2015,05,29,14,25,24.70
2015,05,29,14,26,24.70
2015,05,29,14,27,24.80
2015,05,29,14,28,25.00
2015,05,29,14,29,24.90
2015,05,29,14,30,24.90
2015,05,29,14,31,24.90
2015,05,29,14,32,25.00
2015,05,29,14,33,25.10
2015,05,29,14,34,25.10
2015,05,29,14,35,25.10
2015,05,29,14,36,25.10
2015,05,29,14,37,25.10
2015,05,29,14,38,25.10
2015,05,29,14,39,25.00
2015,05,29,14,40,25.00
2015,05,29,14,41,25.10
2015,05,29,14,42,25.20
2015,05,29,14,43,25.20
2015,05,29,14,44,25.10
2015,05,29,14,45,25.20
2015,05,29,14,46,25.20
2015,05,29,14,47,25.30
2015,05,29,14,48,25.30
2015,05,29,14,49,25.30
2015,05,29,14,50,25.30
2015,05,29,14,51,25.20
2015,05,29,14,52,25.10
2015,05,29,14,53,25.00
2015,05,29,14,54,25.00
2015,05,29,14,55,24.90
2015,05,29,14,56,24.80
2015,05,29,14,57,24.80
2015,05,29,14,58,24.80
2015,05,29,14,59,24.80
2015,05,29,15,00,24.80
2015,05,29,15,01,24.80
2015,05,29,15,02,24.80
2015,05,29,15,03,24.90
2015,05,29,15,04,24.90
2015,05,29,15,05,24.90
2015,05,29,15,06,25.00
2015,05,29,15,07,25.00
2015,05,29,15,08,25.00
2015,05,29,15,09,24.90
2015,05,29,15,10,24.80
2015,05,29,15,11,24.60
2015,05,29,15,12,24.50
2015,05,29,15,13,24.40
2015,05,29,15,14,24.40
2015,05,29,15,15,24.40
2015,05,29,15,16,24.40
2015,05,29,15,17,24.50
2015,05,29,15,18,24.60
2015,05,29,15,19,24.70
2015,05,29,15,20,24.90
2015,05,29,15,21,25.10
2015,05,29,15,22,25.30
2015,05,29,15,23,25.50
2015,05,29,15,24,25.80
2015,05,29,15,25,25.90
2015,05,29,15,26,26.10
2015,05,29,15,27,26.30
2015,05,29,15,28,26.40
2015,05,29,15,29,26.40
2015,05,29,15,30,26.40
2015,05,29,15,31,26.40
2015,05,29,15,32,26.50
2015,05,29,15,33,26.50
2015,05,29,15,34,26.30
2015,05,29,15,35,25.90
2015,05,29,15,36,25.50
2015,05,29,15,37,25.20
2015,05,29,15,38,24.90
2015,05,29,15,39,24.60
2015,05,29,15,40,24.40
2015,05,29,15,41,24.20
2015,05,29,15,42,24.10
2015,05,29,15,43,24.10
2015,05,29,15,44,24.10
2015,05,29,15,45,24.10
2015,05,29,15,46,24.20
2015,05,29,15,47,24.20
2015,05,29,15,48,24.20
2015,05,29,15,49,24.30
2015,05,29,15,50,24.30
2015,05,29,15,51,24.30
2015,05,29,15,52,24.20
2015,05,29,15,53,24.10
2015,05,29,15,54,24.00
2015,05,29,15,55,24.00
2015,05,29,15,56,24.00
2015,05,29,15,57,23.90
2015,05,29,15,58,23.90
2015,05,29,15,59,23.80
2015,05,29,16,00,23.80
2015,05,29,16,01,23.70
2015,05,29,16,02,23.60
2015,05,29,16,03,23.60
2015,05,29,16,04,23.70
2015,05,29,16,05,23.70
2015,05,29,16,06,23.80
2015,05,29,16,07,23.90
2015,05,29,16,08,24.00
2015,05,29,16,09,24.00
2015,05,29,16,10,24.00
2015,05,29,16,11,24.00
2015,05,29,16,12,23.90
2015,05,29,16,13,23.90
2015,05,29,16,14,23.80
2015,05,29,16,15,23.80
2015,05,29,16,16,23.70
2015,05,29,16,17,23.60
2015,05,29,16,18,23.60
2015,05,29,16,19,23.50
2015,05,29,16,20,23.50
2015,05,29,16,21,23.40
2015,05,29,16,22,23.30
2015,05,29,16,23,23.10
2015,05,29,16,24,23.00
2015,05,29,16,25,22.90
2015,05,29,16,26,22.80
2015,05,29,16,27,22.80
2015,05,29,16,28,22.80
2015,05,29,16,29,22.90
2015,05,29,16,30,22.90
2015,05,29,16,31,22.90
2015,05,29,16,32,22.90
2015,05,29,16,33,22.90
2015,05,29,16,34,22.80
2015,05,29,16,35,22.80
2015,05,29,16,36,22.70
2015,05,29,16,37,22.60
2015,05,29,16,38,22.50
2015,05,29,16,39,22.50
2015,05,29,16,40,22.50
2015,05,29,16,41,22.60
2015,05,29,16,42,22.70
2015,05,29,16,43,22.80
2015,05,29,16,44,22.90
2015,05,29,16,45,23.10
2015,05,29,16,46,23.20
2015,05,29,16,47,23.30
2015,05,29,16,48,23.50
2015,05,29,16,49,23.60
2015,05,29,16,50,23.70
2015,05,29,16,51,23.70
2015,05,29,16,52,23.80
2015,05,29,16,53,23.90
2015,05,29,16,54,24.00
2015,05,29,16,55,24.10
2015,05,29,16,56,24.10
2015,05,29,16,57,24.20
2015,05,29,16,58,24.20
2015,05,29,16,59,24.10
2015,05,29,17,00,24.10
2015,05,29,17,01,24.00
2015,05,29,17,02,24.00
2015,05,29,17,03,23.90
2015,05,29,17,04,23.80
2015,05,29,17,05,23.80
2015,05,29,17,06,23.80
2015,05,29,17,07,23.90
2015,05,29,17,08,23.90
2015,05,29,17,09,24.00
2015,05,29,17,10,24.00
2015,05,29,17,11,24.10
2015,05,29,17,12,24.20
2015,05,29,17,13,24.30
2015,05,29,17,14,24.30
2015,05,29,17,15,24.30
2015,05,29,17,16,24.20
2015,05,29,17,17,24.10
2015,05,29,17,18,24.00
2015,05,29,17,19,23.90
2015,05,29,17,20,23.90
2015,05,29,17,21,23.90
2015,05,29,17,22,23.90
2015,05,29,17,23,23.90
2015,05,29,17,24,23.90
2015,05,29,17,25,23.90
2015,05,29,17,26,23.90
2015,05,29,17,27,24.00
2015,05,29,17,28,24.10
2015,05,29,17,29,24.10
2015,05,29,17,30,24.10
2015,05,29,17,31,24.00
2015,05,29,17,32,24.00
2015,05,29,17,33,23.90
2015,05,29,17,34,23.90
2015,05,29,17,35,23.90
2015,05,29,17,36,23.90
2015,05,29,17,37,24.00
2015,05,29,17,38,24.20
2015,05,29,17,39,24.40
2015,05,29,17,40,24.60
2015,05,29,17,41,24.90
2015,05,29,17,42,25.10
2015,05,29,17,43,25.20
2015,05,29,17,44,25.30
2015,05,29,17,45,25.40
2015,05,29,17,46,25.40
2015,05,29,17,47,25.30
2015,05,29,17,48,25.30
2015,05,29,17,49,25.30
2015,05,29,17,50,25.20
2015,05,29,17,51,25.10
2015,05,29,17,52,25.00
2015,05,29,17,53,24.80
2015,05,29,17,54,24.70
2015,05,29,17,55,24.80
2015,05,29,17,56,24.80
2015,05,29,17,57,24.90
2015,05,29,17,58,25.10
2015,05,29,17,59,25.10
2015,05,29,18,00,25.20
2015,05,29,18,01,25.20
2015,05,29,18,02,25.30
2015,05,29,18,03,25.30
2015,05,29,18,04,25.30
2015,05,29,18,05,25.40
2015,05,29,18,06,25.40
2015,05,29,18,07,25.50
2015,05,29,18,08,25.50
2015,05,29,18,09,25.60
2015,05,29,18,10,25.70
2015,05,29,18,11,25.80
2015,05,29,18,12,25.90
2015,05,29,18,13,26.00
2015,05,29,18,14,26.10
2015,05,29,18,15,26.20
2015,05,29,18,16,26.30
2015,05,29,18,17,26.50
2015,05,29,18,18,26.50
2015,05,29,18,19,26.60
2015,05,29,18,20,26.70
2015,05,29,18,21,26.60
2015,05,29,18,22,26.50
2015,05,29,18,23,26.40
2015,05,29,18,24,26.30
2015,05,29,18,25,26.20
2015,05,29,18,26,26.10
2015,05,29,18,27,26.00
2015,05,29,18,28,25.90
2015,05,29,18,29,25.90
2015,05,29,18,30,25.80
2015,05,29,18,31,25.80
2015,05,29,18,32,25.70
2015,05,29,18,33,25.70
2015,05,29,18,34,25.70
2015,05,29,18,35,25.70
2015,05,29,18,36,25.70
2015,05,29,18,37,25.80
2015,05,29,18,38,25.80
2015,05,29,18,39,25.90
2015,05,29,18,40,26.00
2015,05,29,18,41,26.10
2015,05,29,18,42,26.20
2015,05,29,18,43,26.30
2015,05,29,18,44,26.30
2015,05,29,18,45,26.30
2015,05,29,18,46,26.30
2015,05,29,18,47,26.30
2015,05,29,18,48,26.30
2015,05,29,18,49,26.30
2015,05,29,18,50,26.30
2015,05,29,18,51,26.30
2015,05,29,18,52,26.30
2015,05,29,18,53,26.30
2015,05,29,18,54,26.30
2015,05,29,18,55,26.30
2015,05,29,18,56,26.30
2015,05,29,18,57,26.30
2015,05,29,18,58,26.30
2015,05,29,18,59,26.30
2015,05,29,19,00,26.40
2015,05,29,19,01,26.40
2015,05,29,19,02,26.40
2015,05,29,19,03,26.40
2015,05,29,19,04,26.40
2015,05,29,19,05,26.40
2015,05,29,19,06,26.40
2015,05,29,19,07,26.40
2015,05,29,19,08,26.40
2015,05,29,19,09,26.40
2015,05,29,19,10,26.40
2015,05,29,19,11,26.40
2015,05,29,19,12,26.40
2015,05,29,19,13,26.30
2015,05,29,19,14,26.30
2015,05,29,19,15,26.30
2015,05,29,19,16,26.20
2015,05,29,19,17,26.20
2015,05,29,19,18,26.20
2015,05,29,19,19,26.10
2015,05,29,19,20,26.10
2015,05,29,19,21,26.10
2015,05,29,19,22,26.10
2015,05,29,19,23,26.00
2015,05,29,19,24,26.00
2015,05,29,19,25,26.00
2015,05,29,19,26,26.00
2015,05,29,19,27,25.90
2015,05,29,19,28,25.90
2015,05,29,19,29,25.90
2015,05,29,19,30,25.80
2015,05,29,19,31,25.80
2015,05,29,19,32,25.70
2015,05,29,19,33,25.70
2015,05,29,19,34,25.60
2015,05,29,19,35,25.60
2015,05,29,19,36,25.60
2015,05,29,19,37,25.50
2015,05,29,19,38,25.50
2015,05,29,19,39,25.50
2015,05,29,19,40,25.50
2015,05,29,19,41,25.50
2015,05,29,19,42,25.40
2015,05,29,19,43,25.40
2015,05,29,19,44,25.40
2015,05,29,19,45,25.40
2015,05,29,19,46,25.40
2015,05,29,19,47,25.40
2015,05,29,19,48,25.40
2015,05,29,19,49,25.40
2015,05,29,19,50,25.30
2015,05,29,19,51,25.30
2015,05,29,19,52,25.30
2015,05,29,19,53,25.30
2015,05,29,19,54,25.30
2015,05,29,19,55,25.30
2015,05,29,19,56,25.20
2015,05,29,19,57,25.20
2015,05,29,19,58,25.20
2015,05,29,19,59,25.20
2015,05,29,20,00,25.20
2015,05,29,20,01,25.20
2015,05,29,20,02,25.20
2015,05,29,20,03,25.10
2015,05,29,20,04,25.10
2015,05,29,20,05,25.10
2015,05,29,20,06,25.00
2015,05,29,20,07,25.00
2015,05,29,20,08,24.90
2015,05,29,20,09,24.90
2015,05,29,20,10,24.80
2015,05,29,20,11,24.80
2015,05,29,20,12,24.80
2015,05,29,20,13,24.70
2015,05,29,20,14,24.60
2015,05,29,20,15,24.60
2015,05,29,20,16,24.60
2015,05,29,20,17,24.50
2015,05,29,20,18,24.50
2015,05,29,20,19,24.40
2015,05,29,20,20,24.40
2015,05,29,20,21,24.40
2015,05,29,20,22,24.30
2015,05,29,20,23,24.30
2015,05,29,20,24,24.20
2015,05,29,20,25,24.20
2015,05,29,20,26,24.10
2015,05,29,20,27,24.00
2015,05,29,20,28,24.00
2015,05,29,20,29,23.90
2015,05,29,20,30,23.80
2015,05,29,20,31,23.70
2015,05,29,20,32,23.60
2015,05,29,20,33,23.60
2015,05,29,20,34,23.50
2015,05,29,20,35,23.50
2015,05,29,20,36,23.40
2015,05,29,20,37,23.30
2015,05,29,20,38,23.30
2015,05,29,20,39,23.20
2015,05,29,20,40,23.10
2015,05,29,20,41,23.10
2015,05,29,20,42,23.00
2015,05,29,20,43,22.90
2015,05,29,20,44,22.80
2015,05,29,20,45,22.80
2015,05,29,20,46,22.80
2015,05,29,20,47,22.70
2015,05,29,20,48,22.70
2015,05,29,20,49,22.60
2015,05,29,20,50,22.60
2015,05,29,20,51,22.60
2015,05,29,20,52,22.50
2015,05,29,20,53,22.50
2015,05,29,20,54,22.40
2015,05,29,20,55,22.40
2015,05,29,20,56,22.30
2015,05,29,20,57,22.30
2015,05,29,20,58,22.30
2015,05,29,20,59,22.20
2015,05,29,21,00,22.20
2015,05,29,21,01,22.20
2015,05,29,21,02,22.10
2015,05,29,21,03,22.10
2015,05,29,21,04,22.10
2015,05,29,21,05,22.10
2015,05,29,21,06,22.00
2015,05,29,21,07,22.00
2015,05,29,21,08,22.00
2015,05,29,21,09,21.90
2015,05,29,21,10,21.90
2015,05,29,21,11,21.80
2015,05,29,21,12,21.70
2015,05,29,21,13,21.70
2015,05,29,21,14,21.60
2015,05,29,21,15,21.60
2015,05,29,21,16,21.60
2015,05,29,21,17,21.50
2015,05,29,21,18,21.50
2015,05,29,21,19,21.50
2015,05,29,21,20,21.50
2015,05,29,21,21,21.50
2015,05,29,21,22,21.40
2015,05,29,21,23,21.40
2015,05,29,21,24,21.40
2015,05,29,21,25,21.40
2015,05,29,21,26,21.30
2015,05,29,21,27,21.30
2015,05,29,21,28,21.30
2015,05,29,21,29,21.30
2015,05,29,21,30,21.20
2015,05,29,21,31,21.20
2015,05,29,21,32,21.20